Tracking 20041 objects as of 22-Nov-2019
Live streaming from Space Station
objects crossing your sky now

CZ-3B DEB

Track CZ-3B DEB now!


NORAD ID: 40814
Int'l Code: 2010-042X
Perigee: 851.0 km
Apogee: 41,402.3 km
Inclination: 27.3 °
Period: 756.3 minutes
Semi major axis: 27497 km
RCS: Unknown
Launch date: September 4, 2010
Source: People's Republic of China (PRC)
Launch site: Xichang Space Center, China (XSC)

Note: This is SATELLITE DEBRIS
aabbcc
Your satellite tracking list
Your tracking list is empty




NASA's NSSDC Master Catalog

Two Line Element Set (TLE):
1 40814U 10042X   19325.27602828 -.00000172  00000-0 -13049-2 0  9990
2 40814  27.2664  61.1130 7373602 204.3585  86.0425  1.90396774 35046
Source of the keplerian elements: AFSPC